Historique des Minis et Maxis de la station Météo
| Date | Température | Point de rosée | Humidité | Pression | ||||
|---|---|---|---|---|---|---|---|---|
| Mini | Maxi | Mini | Maxi | Mini | Maxi | Mini | Maxi | |
| 01/04/2024 23:59 | 10.94 C° | 21.9 C° | 10,94 C° | 21,90 C° | 49 % | 100 % | 990.27 Hpa | 1002.67 Hpa |
| 31/03/2024 23:59 | 9.31 C° | 24.29 C° | 10 C° | 9,99 C° | 74 % | 100 % | 29.68 Hpa | 996.98 Hpa |
| 30/03/2024 23:59 | 9.1 C° | 23.9 C° | 10,00 C° | 9,99 C° | 100 % | 100 % | 29.68 Hpa | 997.54 Hpa |
| 29/03/2024 23:59 | 6.7 C° | 12.4 C° | 10,00 C° | 9,90 C° | 100 % | 100 % | 29.68 Hpa | 29.68 Hpa |
| 28/03/2024 23:59 | 3.4 C° | 14.7 C° | 10,00 C° | 9,99 C° | 80 % | 100 % | 29.68 Hpa | 29.68 Hpa |
| 27/03/2024 23:59 | 4.7 C° | 10.1 C° | 10 C° | 9,90 C° | 100 % | 100 % | 29.68 Hpa | 29.68 Hpa |
| 26/03/2024 23:59 | 5.1 C° | 22.6 C° | 10,00 C° | 9,90 C° | 61 % | 100 % | 29.68 Hpa | 29.68 Hpa |
| 25/03/2024 23:59 | 2.4 C° | 18.7 C° | 10,00 C° | 9,99 C° | 50 % | 100 % | 29.68 Hpa | 29.68 Hpa |
| 24/03/2024 23:59 | 3.5 C° | 13.4 C° | 10,00 C° | 9,99 C° | 92 % | 100 % | 29.68 Hpa | 29.68 Hpa |
| 23/03/2024 23:59 | 3.6 C° | 13.5 C° | 10,00 C° | 9,99 C° | 89 % | 100 % | 29.68 Hpa | 29.68 Hpa |
| 22/03/2024 23:59 | 9.0 C° | 23.4 C° | 10,00 C° | 9,90 C° | 70 % | 100 % | 29.68 Hpa | 29.68 Hpa |
| 21/03/2024 23:59 | 7.3 C° | 20.4 C° | 10,00 C° | 9,90 C° | 74 % | 100 % | 29.68 Hpa | 29.68 Hpa |
| 20/03/2024 23:59 | 5.4 C° | 26.9 C° | 10,00 C° | 9,90 C° | 54 % | 100 % | 29.68 Hpa | 29.68 Hpa |
| 19/03/2024 23:59 | 5.1 C° | 21.7 C° | 10,00 C° | 9,90 C° | 62 % | 100 % | 29.68 Hpa | 29.68 Hpa |
| 18/03/2024 23:59 | 9.0 C° | 23.4 C° | 10,00 C° | 9,90 C° | 75 % | 100 % | 29.68 Hpa | 29.68 Hpa |
| 17/03/2024 23:59 | 3.5 C° | 18.7 C° | 10,00 C° | 9,90 C° | 90 % | 100 % | 29.68 Hpa | 29.68 Hpa |
| 16/03/2024 23:59 | 6.5 C° | 16.9 C° | 10,00 C° | 9,90 C° | 97 % | 100 % | 29.68 Hpa | 29.68 Hpa |
| 15/03/2024 23:59 | 3.0 C° | 13.6 C° | 10,00 C° | 9,90 C° | 100 % | 100 % | 29.68 Hpa | 29.68 Hpa |
| 14/03/2024 23:59 | 6.6 C° | 22.4 C° | 10,00 C° | 9,90 C° | 84 % | 100 % | 29.68 Hpa | 29.68 Hpa |
| 13/03/2024 23:59 | 8.7 C° | 188.86 C° | 10,00 C° | 9,99 C° | 100 % | 100 % | 29.68 Hpa | 1267.11 Hpa |